Tracking 29892 objects as of 21-Nov-2024
HD Live streaming from Space Station
objects crossing your sky now

ONEWEB-0473

Track ONEWEB-0473 now!
10-day predictions
ONEWEB-0473 is classified as:


NORAD ID: 51653
Int'l Code: 2022-012AH
Perigee: 1,227.6 km
Apogee: 1,230.1 km
Inclination: 87.9 °
Period: 109.9 minutes
Semi major axis: 7599 km
RCS: Unknown
Launch date: February 10, 2022
Source: United Kingdom (UK)
Launch site: FRENCH GUIANA (FRGUI)
Your satellite tracking list
SIRIUS 2 (GE-1E)
Track 1 satellite(s)




NASA's NSSDC Master Catalog

Two Line Element Set (TLE):
1 51653U 22012AH  24325.50345923  .00000629  00000-0  17669-2 0  9992
2 51653  87.8894 150.5147 0001642  85.4855 274.6460 13.10373611134178
Source of the keplerian elements: AFSPC